Simultaneous Nadir Overpasses (SNOs) Predictions

Prediction of SNOs between NOAA-19 and TERRA Satellite Orbit:

Table of predicted SNOs for the next 14.0 days since TLE Epoch: 1/16/2021
Index Date (NOAA-19) Time (NOAA-19) Lat,Lon (NOAA-19) SZA (NOAA-19 ) Date (TERRA) Time (TERRA) Lat,Lon (TERRA) SZA (TERRA ) Distance(km) Time Diff (sec)
1 01/16/2021 08:06:37 79.98, 89.91 102.00 01/16/2021 08:07:30 80.00, 89.89 102.03 2.46 53
2 01/16/2021 08:57:32 -79.98,-102.85 78.01 01/16/2021 08:56:58 -79.96,-102.79 78.04 2.36 34
3 01/18/2021 14:30:50 79.97, -5.97 101.54 01/18/2021 14:30:40 79.98, -6.05 101.54 1.97 10
4 01/20/2021 20:03:58 -79.99, 90.65 78.95 01/20/2021 20:04:23 -80.00, 90.62 78.94 1.15 25
5 01/20/2021 20:55:03 79.97,-101.88 101.05 01/20/2021 20:53:50 79.96,-102.02 101.01 2.76 73
6 01/23/2021 01:37:17 80.00,-172.75 100.54 01/23/2021 01:38:05 80.01,-172.71 100.56 1.33 48
7 01/23/2021 02:28:10 -79.99, -5.29 79.47 01/23/2021 02:27:32 -79.98, -5.34 79.50 1.31 38
8 01/25/2021 08:01:29 80.00, 91.29 99.99 01/25/2021 08:01:14 79.98, 91.29 99.97 1.64 15
9 01/27/2021 13:34:37 -80.02,-172.14 80.59 01/27/2021 13:34:57 -80.00,-172.03 80.59 2.95 20
10 01/27/2021 14:25:31 79.72, -1.33 99.45 01/27/2021 14:24:29 79.78, -6.13 99.07 95.13 62
11 01/29/2021 19:07:55 80.01, -75.32 98.82 01/29/2021 19:08:39 80.00, -75.47 98.81 3.34 44



Historial Predications of SNOs between NOAA-19 and TERRA
